CNOO2: Canton Outflow

Data processed at Tue Mar 26 2019 23:44


All information presented herein is the property of the government of the United States of America and may be revised or deleted at any time without prior notice.
Dissemination of this information without the expressed written consent of the Public Affairs Office, Tulsa District U.S. Army Corps of Engineers is strictly prohibited.
These data are gathered electronically and, as presented, have not undergone any form of quality control. These data are not guaranteed to be valid or correct.
Go to home page.
Go to station list.
Go to home page.

Upstream stations:

Downstream station:
Previous Day
Next Day
Current Day
    
SHEF ID:       CNOO2     North Canadian River at Canton,
STATION TYPE:  
Regulating: Stage =    17.40, Flow =      883

                STAGE  STAGE(2)  RIV-FLOW  WTR-TEMP   DIS-OXY  AIR-TEMP  WIND-DIR  BAT-LOAD
                   ft        ft       cfs         F      mg/l         F       deg      volt
              Ccp-Rev   Ccp-Rev   Ccp-Rev   Ccp-Rev   Ccp-Rev   Ccp-Rev   Ccp-Rev   Ccp-Rev
(US/Central)
03/26 00:00     14.89      ----       371     52.54     12.11      ----      ----     12.57
03/26 01:00     14.90      ----       373     52.48     12.12      ----      ----     12.57
03/26 02:00     14.89      ----       371     52.39     12.09      ----      ----     12.57
03/26 03:00     14.89      ----       371     52.30     10.51      ----      ----     12.57
03/26 04:00     14.89      ----       371     52.27     12.03      ----      ----     12.49
03/26 05:00     14.89      ----       371     52.27     11.73      ----      ----     12.49
03/26 06:00     14.90      ----       373     52.25     11.38      ----      ----     12.41
03/26 07:00     14.89      ----       371     52.23     11.68      ----      ----     12.41
03/26 08:00     14.89      ----       371     52.20     11.38      ----      ----     12.41
03/26 09:00     14.89      ----       371     52.21     10.03      ----      ----     12.49
03/26 10:00     14.88      ----       369     52.38     11.63      ----      ----     13.13
03/26 11:00     14.88      ----       369     52.59     11.79      ----      ----     12.97
03/26 12:00     14.90      ----       373     52.88     10.55      ----      ----     12.73
03/26 13:00     14.89      ----       371     53.11     11.95      ----      ----     13.29
03/26 14:00     14.89      ----       371     53.19     10.23      ----      ----     13.29
03/26 15:00     14.89      ----       371     53.15     12.02      ----      ----     13.21
03/26 16:00     14.89      ----       371     53.20     12.40      ----      ----     13.05
03/26 17:00     14.89      ----       371     52.97     10.35      ----      ----     13.05
03/26 18:00     14.89      ----       371     52.54     10.52      ----      ----     12.89
03/26 19:00     14.89      ----       371     52.20     12.03      ----      ----     12.73
03/26 20:00     14.89      ----       371     51.82     11.54      ----      ----     12.65
03/26 21:00     14.90      ----       373     51.55     11.39      ----      ----     12.65
03/26 22:00     14.89      ----       371     51.40     11.34      ----      ----     12.65
03/26 23:00     14.88      ----       369     51.30     11.14      ----      ----     12.57